星链-30977 (STARLINK-30977 )

导读

STARLINK-30977是美国SpaceX公司星链(Starlink)星座的一员,于2023年11月28日发射升空。作为星链全球卫星互联网项目的组成部分,它运行在近地轨道,属于星座第二阶段组网卫星。 星链项目旨在为全球偏远地区提供低延迟高速宽带服务,这款卫星延续了星链量产设计,搭载Ku/Ka波段通信载荷,配备霍尔推进器,具备自主避撞能力,寿命结束后会主动离轨再入大气层烧毁,服务全球互联。

基本信息
目录编号:
58459
目录名称:
STARLINK-30977
国际标识:
2023-183Y
轨道中心:
EARTH
卫星名称:
星链-30977
卫星全名:
星链-30977 (STARLINK-30977 )
卫星状态:
在轨 (已飞行933 天)
发射日期:
2023-11-28 UTC
国别 :
美国 (US)
星等 :
--
轨道信息
数据来源 国际轨道数据 AOE轨道数据
星历时间 2026-06-16T17:03:54+0800
1天前
查看轨道信息
2026-06-17T06:00:00+0800
1天前
查看轨道信息
半长轴 6861.154km 6861.164km
偏心率 0.0001507 0.0001557
轨道倾角 43.005° 42.998°
近地点辐角 277.481° 226.786°
升交点赤经 204.597° 201.553°
平近点角 82.587° 220.609°
近地点 481.983km 481.958km
远地点 484.051km 484.096km
周期 94.266分钟 94.266分钟
每日圈数 15.275908 15.275876
详细信息
固有亮度:
5
最大亮度:
0.3
卫星平台:
Starlink v2.0 mini
覆盖范围:
全球
运营商:
太空探索技术公司
运营商所在国:
美国
制造商(研发单位):
太空探索技术公司
制造商所在国:
美国
使用方式:
暂无
卫星简介
星链(Starlink)计划是由太空探索技术公司(SpaceX)提出的一个巨型低轨卫星互联网星座项目,计划在2019年至2024年间在太空搭建由约1.2万颗卫星组成的“星链”网络,其中1584颗将部署在地球上空550千米处的近地轨道,并从2020年开始工作。该卫星仍在工作。
2D轨道图
3D轨道图
轨道高度分析图
轨道倾角分析图
轨道综合分析图
查看轨道综合分析图